This is the latest recevied weather packets stored in our database for station/object SR5NLK-1. If no packets are shown the sender has not sent any weather packets the latest 10 day(s).
| Time | Temp. | Humidity | Pressure | Rain* | Wind** | Luminosity | Snow |
|---|---|---|---|---|---|---|---|
| 1777609210 | 13.89° C | 50% | 1012.1 hPa | 0 mm | - | - | - |
| 1777609089 | 13.33° C | 51% | 1022.3 hPa | 0 mm | - | - | - |
| 1777608910 | 11.67° C | 54% | 1018.8 hPa | 0 mm | - | - | - |
| 1777608610 | 10° C | 54% | 1018.5 hPa | 0 mm | - | - | - |
| 1777608310 | 9.44° C | 53% | 1028 hPa | 0 mm | - | - | - |
| 1777608010 | 8.89° C | 54% | 1018.5 hPa | 0 mm | - | - | - |
| 1777607710 | 8.89° C | 53% | 1005.8 hPa | 0 mm | - | - | - |
| 1777607410 | 8.89° C | 53% | 1002.7 hPa | 0 mm | - | - | - |
| 1777607109 | 8.33° C | 53% | 1002.7 hPa | 0 mm | - | - | - |
| 1777606810 | 8.33° C | 53% | 1024.8 hPa | 0 mm | - | - | - |
| 1777606510 | 8.33° C | 53% | 1015.3 hPa | 0 mm | - | - | - |
| 1777606210 | 8.33° C | 53% | 1015.3 hPa | 0 mm | - | - | - |
| 1777605910 | 8.33° C | 53% | 1009 hPa | 0 mm | - | - | - |
| 1777605610 | 8.33° C | 53% | 1015.4 hPa | 0 mm | - | - | - |
| 1777605310 | 8.33° C | 52% | 1018.5 hPa | 0 mm | - | - | - |
| 1777605129 | 8.33° C | 52% | 1046.9 hPa | 0 mm | - | - | - |
| 1777605010 | 8.33° C | 52% | 1012.4 hPa | 0 mm | - | - | - |
| 1777604710 | 8.33° C | 52% | 1018.5 hPa | 0 mm | - | - | - |
| 1777604410 | 8.33° C | 52% | 993.8 hPa | 0 mm | - | - | - |
| 1777604110 | 8.33° C | 51% | 1009 hPa | 0 mm | - | - | - |
| 1777603810 | 8.33° C | 51% | 1015.4 hPa | 0 mm | - | - | - |
| 1777603510 | 8.89° C | 51% | 1024.8 hPa | 0 mm | - | - | - |
| 1777603210 | 8.89° C | 51% | 1018.5 hPa | 0 mm | - | - | - |
| 1777603149 | 8.89° C | 51% | 1012.5 hPa | 0 mm | - | - | - |
| 1777602910 | 8.89° C | 51% | 1012.2 hPa | 0 mm | - | - | - |
* Rain latest hour (hover to see other rain measurements)
** Current wind speed in m/s (hover to see current wind gust speed)